Location: Pian di Sc�
(43.6333°N, 11.5500°E)
Time: 18:19:19
(UTC+00:00)

Cosmos 2034 Rocket - Pass Details

Date: 07 August 2020
Orbit: 958 x 1000 km, 82.9° (Epoch: 17 September)

Event Time Altitude Azimuth Distance (km) Brightness Sun altitude
Exits shadow 00:35:47 57° 264° (W) 1,144 4.1 -27.5°
Maximum altitude 00:36:13 58° 281° (WNW) 1,131 4.2 -27.5°
Drops below altitude 10° 00:42:27 10° 1° (N) 2,753 7.2 -27.1°
Sets 00:45:03 0° 5° (N) 3,712 8.2 -26.9°
